Location: Bemmer
(51.5498°N, 5.6249°E)
Time: 16:30:57
(UTC+00:00)

Landsat 7 - Pass Details

Date: 03 March 2021
Orbit: 701 x 703 km, 98.0° (Epoch: 13 April)

Event Time Altitude Azimuth Distance (km) Brightness Sun altitude
Exits shadow 20:17:05 56° 359° (N) 842 4.2 -27.4°
Drops below altitude 10° 20:20:52 10° 348° (NNW) 2,184 6.8 -27.9°
Sets 20:23:08 0° 347° (NNW) 3,106 7.7 -28.2°
